Location: ??????
(38.3184°N, 23.6932°E)
Time: 18:36:25
(UTC+00:00)

Cosmos 1727 Rocket - Pass Details

Date: 05 June 2022
Orbit: 961 x 996 km, 82.9° (Epoch: 28 June)

Event Time Altitude Azimuth Distance (km) Brightness Sun altitude
Rises 01:55:11 0° 160° (SSE) 3,681 6.8 -11.5°
Reaches altitude 10° 01:57:53 10° 152° (SSE) 2,741 6.2 -11.1°
Maximum altitude 02:03:32 36° 88° (E) 1,517 5.6 -10.3°
Drops below altitude 10° 02:09:14 10° 24° (NNE) 2,769 7.5 -9.4°
Sets 02:11:57 0° 16° (NNE) 3,723 8.0 -9.0°
